Location: Praha
(50.0830°N, 14.4670°E)
Time: 14:51:02
(UTC+01:00)

ISS - Pass Details

Date: 05 December 2018
Orbit: 401 x 408 km, 51.6° (Epoch: 12 December)

Event Time Altitude Azimuth Distance (km) Brightness Sun altitude
Rises 18:35:39 0° 285° (WNW) 2,319 1.1 -23.8°
Reaches altitude 10° 18:37:44 10° 285° (WNW) 1,457 -0.1 -24.1°
Enters shadow 18:39:39 33° 285° (WNW) 708 -2.1 -24.4°
